| time (UTC) | temp C | wind direction | speed KPH | gust KPH | rain 1hr cm | rain 24hr cm | rain mn cm | humidity % | barometer mb |
| 20260902040051 | 32 | 277 | 11.3 | 22.5 | 0.00 | 0.00 | 0.00 | 12 | 1008.7 |
| 20260902034548 | 32 | 250 | 11.3 | 25.7 | 0.00 | 0.00 | 0.00 | 12 | 1008.5 |
| 20260902031547 | 31 | 270 | 12.9 | 30.6 | 0.00 | 0.00 | 0.00 | 18 | 1008.4 |
| 20260902030046 | 32 | 284 | 22.5 | 37.0 | 0.00 | 0.00 | 0.00 | 18 | 1008.3 |
| 20260902024546 | 32 | 311 | 24.1 | 35.4 | 0.00 | 0.00 | 0.00 | 18 | 1008.1 |
| 20260902021544 | 33 | 315 | 16.1 | 29.0 | 0.00 | 0.00 | 0.00 | 20 | 1007.4 |
| 20260902020043 | 33 | 300 | 17.7 | 35.4 | 0.00 | 0.00 | 0.00 | 20 | 1007.3 |
| 20260902014544 | 34 | 300 | 17.7 | 35.4 | 0.00 | 0.00 | 0.00 | 20 | 1007.3 |
| 20260902011541 | 36 | 303 | 22.5 | 37.0 | 0.00 | 0.00 | 0.00 | 19 | 1006.9 |
| 20260902010040 | 36 | 298 | 19.3 | 33.8 | 0.00 | 0.00 | 0.00 | 18 | 1006.7 |
| 20260902004541 | 37 | 257 | 22.5 | 35.4 | 0.00 | 0.00 | 0.00 | 18 | 1006.9 |
| 20260902001559 | 38 | 275 | 19.3 | 35.4 | 0.00 | 0.00 | 0.00 | 18 | 1006.5 |
| 20260902000044 | 39 | 325 | 19.3 | 33.8 | 0.00 | 0.00 | 0.00 | 15 | 1006.5 |
| 20260901234540 | 39 | 277 | 20.9 | 38.6 | 0.00 | 0.00 | 0.00 | 15 | 1006.5 |
| 20260901231538 | 40 | 302 | 17.7 | 27.4 | 0.00 | 0.00 | 0.00 | 13 | 1006.8 |
| 20260901230038 | 39 | 304 | 14.5 | 29.0 | 0.00 | 0.00 | 0.00 | 13 | 1007.0 |
| 20260901224535 | 40 | 259 | 17.7 | 27.4 | 0.00 | 0.00 | 0.00 | 13 | 1007.0 |
| 20260901221542 | 41 | 282 | 12.9 | 37.0 | 0.00 | 0.00 | 0.00 | 12 | 1007.2 |
| 20260901220031 | 41 | 159 | 8.0 | 11.3 | 0.00 | 0.00 | 0.00 | 12 | 1007.5 |
| 20260901214528 | 40 | 196 | 12.9 | 19.3 | 0.00 | 0.00 | 0.00 | 12 | 1007.6 |
| 20260901211525 | 40 | 158 | 1.6 | 19.3 | 0.00 | 0.00 | 0.00 | 12 | 1007.9 |
| 20260901210024 | 40 | 116 | 11.3 | 20.9 | 0.00 | 0.00 | 0.00 | 12 | 1008.2 |
| 20260901204522 | 40 | 93 | 6.4 | 16.1 | 0.00 | 0.00 | 0.00 | 11 | 1008.3 |
| 20260901201519 | 40 | 198 | 4.8 | 12.9 | 0.00 | 0.00 | 0.00 | 12 | 1008.8 |
| 20260901200018 | 40 | 113 | 3.2 | 8.0 | 0.00 | 0.00 | 0.00 | 12 | 1008.8 |
| 20260901194515 | 39 | 125 | 4.8 | 12.9 | 0.00 | 0.00 | 0.00 | 11 | 1008.9 |
| 20260901191516 | 38 | 105 | 3.2 | 14.5 | 0.00 | 0.00 | 0.00 | 12 | 1009.2 |
| 20260901190008 | 38 | 195 | 11.3 | 27.4 | 0.00 | 0.00 | 0.00 | 11 | 1009.5 |
| 20260901184505 | 37 | 119 | 3.2 | 17.7 | 0.00 | 0.00 | 0.00 | 12 | 1009.8 |
| 20260901181605 | 37 | 204 | 4.8 | 14.5 | 0.00 | 0.00 | 0.00 | 11 | 1010.1 |
| 20260901180054 | 37 | 189 | 4.8 | 12.9 | 0.00 | 0.00 | 0.00 | 11 | 1010.1 |
| 20260901174550 | 37 | 264 | 0.0 | 12.9 | 0.00 | 0.00 | 0.00 | 11 | 1010.1 |
| 20260901171549 | 36 | 327 | 1.6 | 8.0 | 0.00 | 0.00 | 0.00 | 12 | 1010.1 |
| 20260901170043 | 35 | 273 | 1.6 | 16.1 | 0.00 | 0.00 | 0.00 | 11 | 1010.0 |
| 20260901164542 | 35 | 224 | 8.0 | 14.5 | 0.00 | 0.00 | 0.00 | 11 | 1009.9 |
| 20260901161547 | 34 | 302 | 12.9 | 19.3 | 0.00 | 0.00 | 0.00 | 11 | 1009.7 |
| 20260901160021 | 34 | 215 | 0.0 | 17.7 | 0.00 | 0.00 | 0.00 | 12 | 1009.4 |
| 20260901154517 | 33 | 240 | 9.7 | 17.7 | 0.00 | 0.00 | 0.00 | 12 | 1009.5 |
| 20260901151511 | 32 | 243 | 9.7 | 20.9 | 0.00 | 0.00 | 0.00 | 11 | 1009.2 |
| 20260901150006 | 32 | 257 | 9.7 | 20.9 | 0.00 | 0.00 | 0.00 | 12 | 1009.4 |
| 20260901144502 | 31 | 271 | 9.7 | 17.7 | 0.00 | 0.00 | 0.00 | 11 | 1009.2 |
| 20260901141557 | 30 | 258 | 9.7 | 19.3 | 0.00 | 0.00 | 0.00 | 11 | 1009.0 |
| 20260901140057 | 30 | 272 | 8.0 | 24.1 | 0.00 | 0.00 | 0.00 | 11 | 1008.8 |
| 20260901134549 | 30 | 267 | 9.7 | 14.5 | 0.00 | 0.00 | 0.00 | 11 | 1008.7 |
| 20260901131544 | 30 | 294 | 8.0 | 16.1 | 0.00 | 0.00 | 0.00 | 11 | 1008.3 |
| 20260901130054 | 30 | 244 | 12.9 | 20.9 | 0.00 | 0.00 | 0.00 | 12 | 1008.3 |
| 20260901124542 | 30 | 296 | 11.3 | 22.5 | 0.00 | 0.00 | 0.00 | 12 | 1008.3 |
| 20260901121539 | 30 | 298 | 14.5 | 24.1 | 0.00 | 0.00 | 0.00 | 12 | 1007.9 |
| 20260901120039 | 30 | 273 | 14.5 | 27.4 | 0.00 | 0.00 | 0.00 | 12 | 1008.0 |
| 20260901114550 | 30 | 311 | 12.9 | 25.7 | 0.00 | 0.00 | 0.00 | 13 | 1008.0 |
| 20260901111542 | 30 | 254 | 14.5 | 20.9 | 0.00 | 0.00 | 0.00 | 15 | 1007.8 |
| 20260901110039 | 30 | 283 | 12.9 | 20.9 | 0.00 | 0.00 | 0.00 | 15 | 1007.5 |
| 20260901104536 | 30 | 262 | 12.9 | 22.5 | 0.00 | 0.00 | 0.00 | 16 | 1007.5 |
| 20260901101531 | 30 | 269 | 8.0 | 14.5 | 0.00 | 0.00 | 0.00 | 17 | 1007.7 |
| 20260901100027 | 30 | 300 | 9.7 | 17.7 | 0.00 | 0.00 | 0.00 | 17 | 1008.0 |
| 20260901094536 | 30 | 309 | 9.7 | 16.1 | 0.00 | 0.00 | 0.00 | 18 | 1008.1 |
| 20260901091623 | 31 | 299 | 14.5 | 22.5 | 0.00 | 0.00 | 0.00 | 17 | 1008.0 |
| 20260901090020 | 31 | 296 | 12.9 | 20.9 | 0.00 | 0.00 | 0.00 | 17 | 1008.1 |
| 20260901084518 | 31 | 302 | 4.8 | 20.9 | 0.00 | 0.00 | 0.00 | 17 | 1008.1 |
| 20260901081514 | 31 | 308 | 16.1 | 29.0 | 0.00 | 0.00 | 0.00 | 15 | 1007.7 |
| 20260901080015 | 31 | 283 | 16.1 | 30.6 | 0.00 | 0.00 | 0.00 | 16 | 1007.7 |
| 20260901074512 | 31 | 288 | 14.5 | 27.4 | 0.00 | 0.00 | 0.00 | 16 | 1007.7 |
| 20260901071507 | 31 | 313 | 6.4 | 22.5 | 0.00 | 0.00 | 0.00 | 15 | 1007.5 |
| 20260901070004 | 32 | 294 | 16.1 | 24.1 | 0.00 | 0.00 | 0.00 | 15 | 1007.5 |
| 20260901064513 | 32 | 292 | 11.3 | 20.9 | 0.00 | 0.00 | 0.00 | 17 | 1007.6 |
| 20260901061503 | 32 | 287 | 12.9 | 22.5 | 0.00 | 0.00 | 0.00 | 17 | 1007.5 |
| 20260901060002 | 32 | 296 | 12.9 | 24.1 | 0.00 | 0.00 | 0.00 | 16 | 1007.3 |
| 20260901054502 | 32 | 288 | 14.5 | 29.0 | 0.00 | 0.00 | 0.00 | 17 | 1007.3 |
| 20260901051502 | 32 | 306 | 20.9 | 30.6 | 0.00 | 0.00 | 0.00 | 15 | 1007.3 |
| 20260901050002 | 32 | 273 | 14.5 | 24.1 | 0.00 | 0.00 | 0.00 | 16 | 1007.1 |
| 20260901044507 | 32 | 267 | 16.1 | 27.4 | 0.00 | 0.00 | 0.00 | 17 | 1007.2 |
| 20260901043101 | 33 | 299 | 11.3 | 20.9 | 0.00 | 0.00 | 0.00 | 18 | 1007.2 |
| 20260901041605 | 33 | 291 | 16.1 | 24.1 | 0.00 | 0.00 | 0.00 | 18 | 1006.8 |